Flag for Germany Weather past 2 weeks in Bergisch Gladbach, North Rhine-Westphalia, Germany

55 °F

Partly sunny.

Feels Like: 54 °F
Forecast: 35 / 53 °F
Wind: 6 mph from Northeast

Location: Koeln / Bonn

Current Time: Oct 10, 2015 at 12:58:12 PM

Latest Report: Oct 10, 2015 at 12:20 PM

Visibility: N/A

Pressure: 30.09 "Hg

Humidity: 82%

Dew point: 50 °F

Location of Bergisch GladbachLocation

Historic Weather in Bergisch Gladbach — Graph


Bergisch Gladbach temperature yesterday

Maximum temperature yesterday: 57 °F (at 3:50 PM)
Minimum temperature yesterday: 52 °F (at 3:20 AM)
Average temperature yesterday: 54 °F

Past Weeks' High & Low Weather Summary

High70 °F (Oct 2, 3:50 PM)100% (Sep 25, 11:50 PM)30.63 "Hg (Sep 25, 11:50 PM)
Low36 °F (Oct 2, 4:50 AM)37% (Sep 30, 4:50 PM)29.59 "Hg (Oct 6, 4:50 PM)
Average54 °F82%30.19 "Hg
* Reported Sep 25 11:20 AM — Oct 10 11:20 AM, Bergisch Gladbach, Weather by CustomWeather, © 2015

Note: Actual official high and low records may vary slightly from our data, if they occured in-between our weather recording intervals... More about our weather records


Bergisch Gladbach weather history for previous 24 hours

Time TempWeatherWind HumidityBarometerVisibility
11:20 AM
Sat, Oct 10
55 °FPartly sunny.6 mph82%30.09 "HgN/A
10:50 AM55 °FPartly sunny.5 mph88%30.12 "HgN/A
10:20 AM54 °FPartly sunny.5 mph94%30.12 "HgN/A
9:50 AM54 °FPartly sunny.5 mph88%30.12 "HgN/A
9:20 AM54 °FPartly sunny.5 mph88%30.12 "HgN/A
8:50 AM52 °FScattered clouds.8 mph94%30.09 "HgN/A
8:20 AM52 °FPassing clouds.7 mph88%30.09 "HgN/A
7:50 AM50 °FPassing clouds.5 mph94%30.09 "HgN/A
7:20 AM52 °FPassing clouds.7 mph94%30.09 "HgN/A
6:50 AM52 °FPassing clouds.7 mph94%30.09 "HgN/A
6:20 AM52 °FPassing clouds.2 mph94%30.12 "HgN/A
5:50 AM52 °FFog.5 mph100%30.12 "HgN/A
5:20 AM52 °FFog.1 mph100%30.12 "HgN/A
4:50 AM52 °FFog.No wind100%30.12 "HgN/A
4:20 AM52 °FCool.No wind100%30.12 "HgN/A
3:50 AM52 °FPassing clouds.1 mph100%30.12 "HgN/A
3:20 AM52 °FPassing clouds.1 mph100%30.12 "HgN/A
2:50 AM52 °FPartly cloudy.1 mph100%30.12 "HgN/A
2:20 AM52 °FPassing clouds.1 mph100%30.12 "HgN/A
1:50 AM52 °FPartly cloudy.2 mph100%30.12 "HgN/A
1:20 AM52 °FPartly cloudy.1 mph100%30.12 "HgN/A
12:50 AM52 °FFog.1 mph100%30.12 "HgN/A
12:20 AM52 °FFog.3 mph100%30.12 "HgN/A
11:20 PM
Fri, Oct 9
54 °FFog.3 mph94%30.15 "HgN/A
10:50 PM54 °FPassing clouds.5 mph94%30.15 "HgN/A
10:20 PM54 °FPassing clouds.3 mph94%30.15 "HgN/A
9:50 PM54 °FPartly cloudy.3 mph94%30.15 "HgN/A
9:20 PM54 °FPassing clouds.5 mph94%30.15 "HgN/A
8:50 PM54 °FPassing clouds.3 mph94%30.15 "HgN/A
8:20 PM54 °FPartly cloudy.3 mph94%30.15 "HgN/A
7:50 PM54 °FPartly sunny.3 mph94%30.15 "HgN/A
7:20 PM55 °FBroken clouds.2 mph88%30.15 "HgN/A
6:50 PM55 °FPartly sunny.3 mph88%30.15 "HgN/A
6:20 PM55 °FPartly sunny.6 mph88%30.15 "HgN/A
5:50 PM57 °FPartly sunny.6 mph82%30.15 "HgN/A
5:20 PM57 °FPartly sunny.6 mph82%30.15 "HgN/A
4:50 PM57 °FPartly sunny.7 mph82%30.15 "HgN/A
4:20 PM57 °FPartly sunny.3 mph82%30.15 "HgN/A
3:50 PM57 °FLight rain. Partly sunny.5 mph82%30.15 "HgN/A
3:20 PM55 °FPartly sunny.6 mph88%30.15 "HgN/A
2:50 PM55 °FPartly sunny.6 mph88%30.15 "HgN/A
2:20 PM55 °FLight rain. Partly sunny.8 mph88%30.15 "HgN/A
1:50 PM55 °FLight rain. Partly sunny.8 mph88%30.15 "HgN/A
1:20 PM55 °FPartly sunny.7 mph88%30.18 "HgN/A
12:50 PM55 °FPartly sunny.5 mph88%30.18 "HgN/A
12:20 PM55 °FPartly sunny.5 mph88%30.18 "HgN/A
Weather by CustomWeather, © 2015

See weather overviewHow to use our weather pages